{"data":{"norad_id":58141,"epoch":"2026-09-21T22:08:59.543232Z","epoch_age_seconds":113435,"freshness":"FRESH","line1":"1 58141U 23163A   26264.92291138  .00005785  00000+0  24288-3 0  9990","line2":"2 58141  35.0006  96.3817 0004390 168.4740 191.6076 15.22797859162335","mean_motion":15.22797859,"eccentricity":0.000439,"inclination_deg":35.0006,"raan_deg":96.3817,"arg_perigee_deg":168.474,"mean_anomaly_deg":191.6076,"bstar":0.00024288,"rev_number":16233,"period_min":94.56278070588,"perigee_km":494.38764370138,"apogee_km":500.42437046159,"semimajor_km":6875.5430070815,"source":"CELESTRAK","updated_at":"2026-09-22T09:00:26.499757Z"}}